Time,TemperatureF,DewpointF,PressureIn,WindDirection,WindDirectionDegrees,WindSpeedMPH,WindSpeedGustMPH,Humidity,HourlyPrecipIn,Conditions,Clouds,dailyrainin,SoftwareType,DateUTC
2013-03-25 00:01:00,30.7,22.1,29.72,NE,50,13.0,17.0,70,0.00,OVC,OVC,0.00,WeatherDisplay:10.37,2013-03-25 04:01:00,
2013-03-25 00:06:00,30.7,22.1,29.71,NE,48,13.0,18.0,70,0.00,OVC,OVC,0.00,WeatherDisplay:10.37,2013-03-25 04:06:00,
2013-03-25 00:11:00,30.8,22.1,29.72,NE,48,10.0,17.0,70,0.00,OVC,OVC,0.00,WeatherDisplay:10.37,2013-03-25 04:11:00,
2013-03-25 00:16:00,30.8,22.1,29.71,NE,49,10.0,18.0,70,0.00,OVC,OVC,0.00,WeatherDisplay:10.37,2013-03-25 04:16:00,
2013-03-25 00:21:00,30.8,22.2,29.71,NE,41,12.0,15.0,70,0.00,OVC,OVC,0.00,WeatherDisplay:10.37,2013-03-25 04:21:00,
2013-03-25 00:26:00,30.8,22.2,29.71,NE,44,10.0,14.0,70,0.00,OVC,OVC,0.00,WeatherDisplay:10.37,2013-03-25 04:26:00,
2013-03-25 00:31:00,30.8,22.2,29.71,NE,48,12.0,16.0,70,0.00,OVC,OVC,0.00,WeatherDisplay:10.37,2013-03-25 04:31:00,
2013-03-25 00:36:00,30.8,22.2,29.71,NE,47,8.0,17.0,70,0.00,OVC,OVC,0.00,WeatherDisplay:10.37,2013-03-25 04:36:00,
2013-03-25 00:41:00,30.8,22.5,29.71,NE,48,8.0,10.0,71,0.00,OVC,OVC,0.00,WeatherDisplay:10.37,2013-03-25 04:41:00,
2013-03-25 00:46:00,30.8,22.5,29.71,NE,40,10.0,15.0,71,0.00,OVC,OVC,0.00,WeatherDisplay:10.37,2013-03-25 04:46:00,
2013-03-25 00:51:00,30.8,22.5,29.71,NE,42,8.0,12.0,71,0.00,OVC,OVC,0.00,WeatherDisplay:10.37,2013-03-25 04:51:00,
2013-03-25 00:56:00,30.7,22.4,29.71,NE,45,8.0,12.0,71,0.00,OVC,OVC,0.00,WeatherDisplay:10.37,2013-03-25 04:56:00,
2013-03-25 01:01:00,30.7,22.7,29.71,NE,45,9.0,12.0,72,0.00,OVC,OVC,0.00,WeatherDisplay:10.37,2013-03-25 05:01:00,
2013-03-25 01:06:00,30.7,22.7,29.71,NE,42,7.0,12.0,72,0.00,OVC,OVC,0.00,WeatherDisplay:10.37,2013-03-25 05:06:00,
2013-03-25 01:11:00,30.7,22.7,29.71,NE,42,9.0,16.0,72,0.00,OVC,OVC,0.00,WeatherDisplay:10.37,2013-03-25 05:11:00,
2013-03-25 01:16:00,30.7,22.7,29.71,NE,44,7.0,12.0,72,0.00,OVC,OVC,0.00,WeatherDisplay:10.37,2013-03-25 05:16:00,
2013-03-25 01:21:00,30.7,23.1,29.70,NE,38,8.0,13.0,73,0.00,OVC,OVC,0.00,WeatherDisplay:10.37,2013-03-25 05:21:00,
2013-03-25 01:26:00,30.7,23.0,29.70,NE,38,9.0,13.0,73,0.00,OVC,OVC,0.00,WeatherDisplay:10.37,2013-03-25 05:26:00,
2013-03-25 01:31:00,30.7,23.0,29.70,NE,40,9.0,13.0,73,0.00,OVC,OVC,0.00,WeatherDisplay:10.37,2013-03-25 05:31:00,
2013-03-25 01:36:00,30.6,23.0,29.70,NE,37,9.0,16.0,73,0.00,OVC,OVC,0.00,WeatherDisplay:10.37,2013-03-25 05:36:00,
2013-03-25 01:41:00,30.6,23.0,29.70,NE,37,9.0,14.0,73,0.00,OVC,OVC,0.00,WeatherDisplay:10.37,2013-03-25 05:41:00,
2013-03-25 01:46:00,30.6,23.3,29.70,NE,35,10.0,13.0,74,0.00,OVC,OVC,0.00,WeatherDisplay:10.37,2013-03-25 05:46:00,
2013-03-25 01:51:00,30.6,23.3,29.70,NE,34,10.0,12.0,74,0.00,OVC,OVC,0.00,WeatherDisplay:10.37,2013-03-25 05:51:00,
2013-03-25 01:56:00,30.6,23.3,29.70,NE,35,9.0,14.0,74,0.00,OVC,OVC,0.00,WeatherDisplay:10.37,2013-03-25 05:56:00,
2013-03-25 02:01:00,30.6,23.3,29.70,NE,34,9.0,12.0,74,0.00,OVC,OVC,0.00,WeatherDisplay:10.37,2013-03-25 06:01:00,
2013-03-25 02:06:00,30.6,23.6,29.70,NE,34,7.0,13.0,75,0.00,OVC,OVC,0.00,WeatherDisplay:10.37,2013-03-25 06:06:00,
2013-03-25 02:11:00,30.6,23.6,29.70,NNE,32,8.0,10.0,75,0.00,OVC,OVC,0.00,WeatherDisplay:10.37,2013-03-25 06:11:00,
2013-03-25 02:16:00,30.6,23.6,29.69,NNE,32,7.0,12.0,75,0.00,OVC,OVC,0.00,WeatherDisplay:10.37,2013-03-25 06:16:00,
2013-03-25 02:21:00,30.6,23.6,29.69,NE,37,13.0,16.0,75,0.00,OVC,OVC,0.00,WeatherDisplay:10.37,2013-03-25 06:21:00,
2013-03-25 02:26:00,30.7,23.7,29.69,NE,36,10.0,15.0,75,0.00,OVC,OVC,0.00,WeatherDisplay:10.37,2013-03-25 06:26:00,
2013-03-25 02:31:00,30.7,23.7,29.69,NE,36,12.0,17.0,75,0.00,OVC,OVC,0.00,WeatherDisplay:10.37,2013-03-25 06:31:00,
2013-03-25 02:36:00,30.7,23.7,29.69,NE,40,7.0,14.0,75,0.00,OVC,OVC,0.00,WeatherDisplay:10.37,2013-03-25 06:36:00,
2013-03-25 02:41:00,30.7,23.7,29.69,NE,42,10.0,15.0,75,0.00,OVC,OVC,0.00,WeatherDisplay:10.37,2013-03-25 06:41:00,
2013-03-25 02:46:00,30.8,23.8,29.69,NE,41,10.0,20.0,75,0.00,OVC,OVC,0.00,WeatherDisplay:10.37,2013-03-25 06:46:00,
2013-03-25 02:51:00,30.8,24.1,29.69,NE,39,10.0,16.0,76,0.00,OVC,OVC,0.00,WeatherDisplay:10.37,2013-03-25 06:51:00,
2013-03-25 02:56:00,30.9,24.2,29.68,NE,39,10.0,13.0,76,0.00,OVC,OVC,0.00,WeatherDisplay:10.37,2013-03-25 06:56:00,
2013-03-25 03:01:00,30.9,24.2,29.68,NE,36,9.0,15.0,76,0.00,OVC,OVC,0.00,WeatherDisplay:10.37,2013-03-25 07:01:00,
2013-03-25 03:06:00,31.0,24.3,29.68,NNE,33,14.0,22.0,76,0.00,OVC,OVC,0.00,WeatherDisplay:10.37,2013-03-25 07:06:00,
2013-03-25 03:11:00,31.0,24.0,29.68,NE,38,13.0,18.0,75,0.00,OVC,OVC,0.00,WeatherDisplay:10.37,2013-03-25 07:11:00,
2013-03-25 03:16:00,31.0,24.3,29.68,NE,40,9.0,16.0,76,0.00,OVC,OVC,0.00,WeatherDisplay:10.37,2013-03-25 07:16:00,
2013-03-25 03:21:00,31.0,24.0,29.68,NE,38,14.0,17.0,75,0.00,OVC,OVC,0.00,WeatherDisplay:10.37,2013-03-25 07:21:00,
2013-03-25 03:26:00,31.0,24.3,29.68,NE,41,8.0,20.0,76,0.00,OVC,OVC,0.00,WeatherDisplay:10.37,2013-03-25 07:26:00,
2013-03-25 03:31:00,31.0,24.3,29.68,NE,40,12.0,18.0,76,0.00,OVC,OVC,0.00,WeatherDisplay:10.37,2013-03-25 07:31:00,
2013-03-25 03:36:00,31.0,24.3,29.68,NE,38,12.0,15.0,76,0.00,OVC,OVC,0.00,WeatherDisplay:10.37,2013-03-25 07:36:00,
2013-03-25 03:41:00,30.9,24.2,29.68,NE,39,9.0,20.0,76,0.00,OVC,OVC,0.00,WeatherDisplay:10.37,2013-03-25 07:41:00,
2013-03-25 03:46:00,30.9,24.2,29.68,NE,38,10.0,15.0,76,0.00,OVC,OVC,0.00,WeatherDisplay:10.37,2013-03-25 07:46:00,
2013-03-25 03:51:00,31.0,24.3,29.67,NNE,32,9.0,15.0,76,0.00,OVC,OVC,0.00,WeatherDisplay:10.37,2013-03-25 07:51:00,
2013-03-25 03:56:00,31.0,24.6,29.67,NNE,30,9.0,14.0,77,0.00,OVC,OVC,0.00,WeatherDisplay:10.37,2013-03-25 07:56:00,
2013-03-25 04:01:00,30.9,24.3,29.67,NNE,30,9.0,14.0,76,0.00,OVC,OVC,0.00,WeatherDisplay:10.37,2013-03-25 08:01:00,
2013-03-25 04:06:00,31.0,24.3,29.67,NNE,32,13.0,17.0,76,0.00,OVC,OVC,0.00,WeatherDisplay:10.37,2013-03-25 08:06:00,
2013-03-25 04:11:00,31.0,24.3,29.67,NNE,31,13.0,20.0,76,0.00,OVC,OVC,0.00,WeatherDisplay:10.37,2013-03-25 08:11:00,
2013-03-25 04:16:00,31.0,24.3,29.67,NNE,30,9.0,20.0,76,0.00,OVC,OVC,0.00,WeatherDisplay:10.37,2013-03-25 08:16:00,
2013-03-25 04:21:00,30.9,24.3,29.66,NNE,29,12.0,16.0,76,0.00,OVC,OVC,0.00,WeatherDisplay:10.37,2013-03-25 08:21:00,
2013-03-25 04:26:00,30.9,24.2,29.66,NNE,28,10.0,15.0,76,0.00,OVC,OVC,0.00,WeatherDisplay:10.37,2013-03-25 08:26:00,
2013-03-25 04:31:00,30.9,24.2,29.66,NNE,28,8.0,16.0,76,0.00,OVC,OVC,0.00,WeatherDisplay:10.37,2013-03-25 08:31:00,
2013-03-25 04:36:00,30.8,24.1,29.66,NNE,28,12.0,14.0,76,0.00,OVC,OVC,0.00,WeatherDisplay:10.37,2013-03-25 08:36:00,
2013-03-25 04:41:00,30.7,24.0,29.66,NNE,26,10.0,18.0,76,0.00,OVC,OVC,0.00,WeatherDisplay:10.37,2013-03-25 08:41:00,
2013-03-25 04:46:00,30.6,23.7,29.66,NNE,27,10.0,17.0,75,0.00,OVC,OVC,0.00,WeatherDisplay:10.37,2013-03-25 08:46:00,
2013-03-25 04:51:00,30.6,23.6,29.65,NNE,26,10.0,17.0,75,0.00,OVC,OVC,0.00,WeatherDisplay:10.37,2013-03-25 08:51:00,
2013-03-25 04:56:00,30.5,23.8,29.66,NNE,25,10.0,13.0,76,0.00,OVC,OVC,0.00,WeatherDisplay:10.37,2013-03-25 08:56:00,
2013-03-25 05:01:00,30.6,23.6,29.66,NNE,23,13.0,17.0,75,0.00,OVC,OVC,0.00,WeatherDisplay:10.37,2013-03-25 09:01:00,
2013-03-25 05:06:00,30.6,23.9,29.66,NNE,23,12.0,16.0,76,0.00,OVC,OVC,0.00,WeatherDisplay:10.37,2013-03-25 09:06:00,
2013-03-25 05:11:00,30.6,23.9,29.66,NNE,27,12.0,16.0,76,0.00,OVC,OVC,0.00,WeatherDisplay:10.37,2013-03-25 09:11:00,
2013-03-25 05:16:00,30.7,24.0,29.66,NNE,29,13.0,18.0,76,0.00,OVC,OVC,0.00,WeatherDisplay:10.37,2013-03-25 09:16:00,
2013-03-25 05:21:00,30.7,24.0,29.66,NNE,33,9.0,16.0,76,0.00,OVC,OVC,0.00,WeatherDisplay:10.37,2013-03-25 09:21:00,
2013-03-25 05:26:00,30.7,24.0,29.66,NE,35,13.0,16.0,76,0.00,OVC,OVC,0.00,WeatherDisplay:10.37,2013-03-25 09:26:00,
2013-03-25 05:31:00,30.7,24.3,29.66,NE,35,9.0,14.0,77,0.00,OVC,OVC,0.00,WeatherDisplay:10.37,2013-03-25 09:31:00,
2013-03-25 05:36:00,30.7,24.3,29.66,NE,36,10.0,15.0,77,0.00,OVC,OVC,0.00,WeatherDisplay:10.37,2013-03-25 09:36:00,
2013-03-25 05:41:00,30.7,24.4,29.66,NE,41,12.0,20.0,77,0.00,OVC,OVC,0.00,WeatherDisplay:10.37,2013-03-25 09:41:00,
2013-03-25 05:46:00,30.7,24.3,29.66,NE,40,10.0,18.0,77,0.00,OVC,OVC,0.00,WeatherDisplay:10.37,2013-03-25 09:46:00,
2013-03-25 05:51:00,30.7,24.3,29.66,NE,38,10.0,14.0,77,0.00,OVC,OVC,0.00,WeatherDisplay:10.37,2013-03-25 09:51:00,
2013-03-25 05:56:00,30.7,24.3,29.66,NE,40,12.0,15.0,77,0.00,OVC,OVC,0.00,WeatherDisplay:10.37,2013-03-25 09:56:00,
2013-03-25 06:01:00,30.7,24.3,29.66,NE,37,13.0,20.0,77,0.00,OVC,OVC,0.00,WeatherDisplay:10.37,2013-03-25 10:01:00,
2013-03-25 06:06:00,30.7,24.3,29.66,NE,38,9.0,16.0,77,0.00,OVC,OVC,0.00,WeatherDisplay:10.37,2013-03-25 10:06:00,
2013-03-25 06:11:00,30.7,24.3,29.67,NE,38,9.0,17.0,77,0.00,OVC,OVC,0.00,WeatherDisplay:10.37,2013-03-25 10:11:00,
2013-03-25 06:16:00,30.7,24.3,29.67,NNE,33,13.0,16.0,77,0.00,OVC,OVC,0.00,WeatherDisplay:10.37,2013-03-25 10:16:00,
2013-03-25 06:26:00,30.6,24.3,29.67,NNE,33,9.0,15.0,77,0.00,OVC,OVC,0.00,WeatherDisplay:10.37,2013-03-25 10:26:00,
2013-03-25 06:31:00,30.6,24.2,29.67,NNE,30,8.0,15.0,77,0.00,OVC,OVC,0.00,WeatherDisplay:10.37,2013-03-25 10:31:00,
2013-03-25 06:36:00,30.5,24.1,29.67,NNE,30,9.0,14.0,77,0.00,OVC,OVC,0.00,WeatherDisplay:10.37,2013-03-25 10:36:00,
2013-03-25 06:41:00,30.5,24.1,29.67,NNE,31,10.0,16.0,77,0.00,OVC,OVC,0.00,WeatherDisplay:10.37,2013-03-25 10:41:00,
2013-03-25 06:46:00,30.4,24.4,29.67,NNE,33,9.0,14.0,78,0.00,OVC,OVC,0.00,WeatherDisplay:10.37,2013-03-25 10:46:00,
2013-03-25 06:51:00,30.4,24.4,29.67,NE,36,9.0,15.0,78,0.00,OVC,OVC,0.00,WeatherDisplay:10.37,2013-03-25 10:51:00,
2013-03-25 06:56:00,30.4,24.4,29.67,NNE,33,10.0,16.0,78,0.00,OVC,OVC,0.00,WeatherDisplay:10.37,2013-03-25 10:56:00,
2013-03-25 07:06:00,30.3,24.3,29.68,NNE,27,9.0,12.0,78,0.00,OVC,OVC,0.00,WeatherDisplay:10.37,2013-03-25 11:06:00,
2013-03-25 07:11:00,30.3,24.3,29.68,NNE,26,9.0,13.0,78,0.00,OVC,OVC,0.00,WeatherDisplay:10.37,2013-03-25 11:11:00,
2013-03-25 07:16:00,30.3,24.3,29.68,NNE,24,13.0,17.0,78,0.00,OVC,OVC,0.00,WeatherDisplay:10.37,2013-03-25 11:16:00,
2013-03-25 07:21:00,30.3,24.3,29.68,NNE,24,9.0,16.0,78,0.00,OVC,OVC,0.00,WeatherDisplay:10.37,2013-03-25 11:21:00,
2013-03-25 07:26:00,30.3,24.3,29.68,NNE,25,9.0,15.0,78,0.00,OVC,OVC,0.00,WeatherDisplay:10.37,2013-03-25 11:26:00,
2013-03-25 07:31:00,30.3,24.0,29.68,NNE,23,10.0,16.0,77,0.00,OVC,OVC,0.00,WeatherDisplay:10.37,2013-03-25 11:31:00,
2013-03-25 07:36:00,30.3,24.0,29.68,NNE,24,10.0,15.0,77,0.00,OVC,OVC,0.00,WeatherDisplay:10.37,2013-03-25 11:36:00,
2013-03-25 07:41:00,30.4,24.1,29.68,NNE,26,12.0,15.0,77,0.00,OVC,OVC,0.00,WeatherDisplay:10.37,2013-03-25 11:41:00,
2013-03-25 07:46:00,30.5,24.1,29.69,NNE,22,10.0,14.0,77,0.00,OVC,OVC,0.00,WeatherDisplay:10.37,2013-03-25 11:46:00,
2013-03-25 07:51:00,30.4,24.4,29.69,NNE,19,10.0,13.0,78,0.00,OVC,OVC,0.00,WeatherDisplay:10.37,2013-03-25 11:51:00,
2013-03-25 07:56:00,30.4,24.4,29.69,NNE,21,10.0,17.0,78,0.00,OVC,OVC,0.00,WeatherDisplay:10.37,2013-03-25 11:56:00,
2013-03-25 08:01:00,30.4,24.1,29.69,NNE,24,13.0,16.0,77,0.00,BKN,OVC,0.00,WeatherDisplay:10.37,2013-03-25 12:01:00,
2013-03-25 08:06:00,30.5,24.1,29.69,NNE,21,13.0,17.0,77,0.00,BKN,OVC,0.00,WeatherDisplay:10.37,2013-03-25 12:06:00,
2013-03-25 08:16:00,30.6,24.2,29.70,NNE,18,13.0,17.0,77,0.00,BKN,OVC,0.00,WeatherDisplay:10.37,2013-03-25 12:16:00,
2013-03-25 08:21:00,30.7,24.3,29.70,NNE,21,13.0,17.0,77,0.00,BKN,OVC,0.00,WeatherDisplay:10.37,2013-03-25 12:21:00,
2013-03-25 08:26:00,30.7,24.7,29.70,NNE,23,12.0,18.0,78,0.00,BKN,OVC,0.00,WeatherDisplay:10.37,2013-03-25 12:26:00,
2013-03-25 08:31:00,30.8,24.4,29.70,NNE,17,12.0,15.0,77,0.00,BKN,OVC,0.00,WeatherDisplay:10.37,2013-03-25 12:31:00,
2013-03-25 08:36:00,30.9,24.5,29.70,NNE,21,10.0,14.0,77,0.00,BKN,OVC,0.00,WeatherDisplay:10.37,2013-03-25 12:36:00,
2013-03-25 08:41:00,30.9,24.5,29.70,NNE,20,14.0,17.0,77,0.00,BKN,OVC,0.00,WeatherDisplay:10.37,2013-03-25 12:41:00,
2013-03-25 08:46:00,31.0,24.6,29.71,NNE,22,12.0,18.0,77,0.00,BKN,OVC,0.00,WeatherDisplay:10.37,2013-03-25 12:46:00,
2013-03-25 08:51:00,31.1,24.7,29.71,NNE,22,10.0,16.0,77,0.00,BKN,OVC,0.00,WeatherDisplay:10.37,2013-03-25 12:51:00,
2013-03-25 08:56:00,31.2,24.8,29.71,NNE,21,12.0,16.0,77,0.00,BKN,OVC,0.00,WeatherDisplay:10.37,2013-03-25 12:56:00,
2013-03-25 09:01:00,31.3,24.9,29.71,NNE,25,8.0,16.0,77,0.00,OVC,OVC,0.00,WeatherDisplay:10.37,2013-03-25 13:01:00,
2013-03-25 09:11:00,31.5,25.1,29.72,NNE,18,13.0,17.0,77,0.00,OVC,OVC,0.00,WeatherDisplay:10.37,2013-03-25 13:11:00,
2013-03-25 09:16:00,31.6,25.2,29.72,NNE,19,14.0,17.0,77,0.00,OVC,OVC,0.00,WeatherDisplay:10.37,2013-03-25 13:16:00,
2013-03-25 09:21:00,31.7,25.3,29.72,NNE,17,13.0,17.0,77,0.00,OVC,OVC,0.00,WeatherDisplay:10.37,2013-03-25 13:21:00,
2013-03-25 09:26:00,31.9,25.5,29.72,NNE,20,13.0,17.0,77,0.00,OVC,OVC,0.00,WeatherDisplay:10.37,2013-03-25 13:26:00,
2013-03-25 09:31:00,32.0,25.6,29.72,NNE,24,7.0,15.0,77,0.00,OVC,OVC,0.00,WeatherDisplay:10.37,2013-03-25 13:31:00,
2013-03-25 09:36:00,32.0,25.3,29.72,NNE,14,10.0,16.0,76,0.00,OVC,OVC,0.00,WeatherDisplay:10.37,2013-03-25 13:36:00,
2013-03-25 09:41:00,32.0,25.3,29.73,NNE,15,12.0,17.0,76,0.00,OVC,OVC,0.00,WeatherDisplay:10.37,2013-03-25 13:41:00,
2013-03-25 09:46:00,32.1,25.4,29.73,NNE,22,9.0,15.0,76,0.00,OVC,OVC,0.00,WeatherDisplay:10.37,2013-03-25 13:46:00,
2013-03-25 09:51:00,32.2,25.5,29.73,NNE,24,13.0,17.0,76,0.00,OVC,OVC,0.00,WeatherDisplay:10.37,2013-03-25 13:51:00,
2013-03-25 09:56:00,32.3,25.6,29.73,NNE,26,14.0,20.0,76,0.00,OVC,OVC,0.00,WeatherDisplay:10.37,2013-03-25 13:56:00,
2013-03-25 10:01:00,32.4,25.7,29.73,NNE,23,9.0,13.0,76,0.00,BKN,OVC,0.00,WeatherDisplay:10.37,2013-03-25 14:01:00,
2013-03-25 10:06:00,32.6,25.9,29.73,NNE,25,9.0,17.0,76,0.00,BKN,OVC,0.00,WeatherDisplay:10.37,2013-03-25 14:06:00,
2013-03-25 10:11:00,32.7,25.6,29.73,NNE,24,10.0,17.0,75,0.00,BKN,OVC,0.00,WeatherDisplay:10.37,2013-03-25 14:11:00,
2013-03-25 10:16:00,32.9,25.8,29.73,NNE,20,10.0,15.0,75,0.00,BKN,OVC,0.00,WeatherDisplay:10.37,2013-03-25 14:16:00,
2013-03-25 10:21:00,33.0,25.6,29.73,NNE,16,14.0,20.0,74,0.00,BKN,OVC,0.00,WeatherDisplay:10.37,2013-03-25 14:21:00,
2013-03-25 10:26:00,33.0,25.6,29.73,NNE,21,15.0,20.0,74,0.00,BKN,OVC,0.00,WeatherDisplay:10.37,2013-03-25 14:26:00,
2013-03-25 10:31:00,33.2,25.8,29.73,NNE,21,15.0,20.0,74,0.00,BKN,OVC,0.00,WeatherDisplay:10.37,2013-03-25 14:31:00,
2013-03-25 10:36:00,33.2,25.5,29.74,NNE,25,13.0,21.0,73,0.00,BKN,OVC,0.00,WeatherDisplay:10.37,2013-03-25 14:36:00,
2013-03-25 10:41:00,33.4,26.0,29.74,NNE,23,13.0,16.0,74,0.00,BKN,OVC,0.00,WeatherDisplay:10.37,2013-03-25 14:41:00,
2013-03-25 10:46:00,33.5,25.8,29.74,NNE,20,12.0,17.0,73,0.00,BKN,OVC,0.00,WeatherDisplay:10.37,2013-03-25 14:46:00,
2013-03-25 10:51:00,33.6,25.9,29.74,NNE,20,12.0,20.0,73,0.00,BKN,OVC,0.00,WeatherDisplay:10.37,2013-03-25 14:51:00,
2013-03-25 10:56:00,33.7,25.7,29.74,NNE,22,14.0,21.0,72,0.00,BKN,OVC,0.00,WeatherDisplay:10.37,2013-03-25 14:56:00,
2013-03-25 11:01:00,33.9,25.8,29.74,NNE,23,13.0,18.0,72,0.00,OVC,OVC,0.00,WeatherDisplay:10.37,2013-03-25 15:01:00,
2013-03-25 11:06:00,34.0,25.9,29.74,NNE,21,12.0,17.0,72,0.00,OVC,OVC,0.00,WeatherDisplay:10.37,2013-03-25 15:06:00,
2013-03-25 11:11:00,34.1,26.0,29.75,NNE,27,14.0,22.0,72,0.00,OVC,OVC,0.00,WeatherDisplay:10.37,2013-03-25 15:11:00,
2013-03-25 11:16:00,34.1,25.7,29.75,NNE,23,15.0,18.0,71,0.00,OVC,OVC,0.00,WeatherDisplay:10.37,2013-03-25 15:16:00,
2013-03-25 11:21:00,34.3,26.2,29.75,NNE,18,10.0,16.0,72,0.00,OVC,OVC,0.00,WeatherDisplay:10.37,2013-03-25 15:21:00,
2013-03-25 11:26:00,34.4,25.6,29.75,NNE,20,14.0,20.0,70,0.00,OVC,OVC,0.00,WeatherDisplay:10.37,2013-03-25 15:26:00,
2013-03-25 11:31:00,34.6,26.2,29.75,NNE,30,12.0,20.0,71,0.00,OVC,OVC,0.00,WeatherDisplay:10.37,2013-03-25 15:31:00,
2013-03-25 11:36:00,34.7,25.9,29.75,NNE,24,12.0,18.0,70,0.00,OVC,OVC,0.00,WeatherDisplay:10.37,2013-03-25 15:36:00,
2013-03-25 11:41:00,34.7,25.6,29.75,NNE,32,14.0,21.0,69,0.00,OVC,OVC,0.00,WeatherDisplay:10.37,2013-03-25 15:41:00,
2013-03-25 11:46:00,35.0,26.2,29.75,NE,40,12.0,17.0,70,0.00,OVC,OVC,0.00,WeatherDisplay:10.37,2013-03-25 15:46:00,
2013-03-25 11:51:00,35.0,26.2,29.75,NE,34,10.0,16.0,70,0.00,OVC,OVC,0.00,WeatherDisplay:10.37,2013-03-25 15:51:00,
2013-03-25 11:56:00,35.1,26.7,29.75,NNE,22,13.0,16.0,71,0.00,OVC,OVC,0.00,WeatherDisplay:10.37,2013-03-25 15:56:00,
2013-03-25 12:01:00,35.2,26.1,29.76,NNE,27,10.0,18.0,69,0.00,OVC,OVC,0.00,WeatherDisplay:10.37,2013-03-25 16:01:00,
2013-03-25 12:06:00,35.2,25.3,29.76,NE,40,14.0,20.0,67,0.00,OVC,OVC,0.00,WeatherDisplay:10.37,2013-03-25 16:06:00,
2013-03-25 12:11:00,35.2,25.3,29.76,NNE,28,14.0,20.0,67,0.00,OVC,OVC,0.00,WeatherDisplay:10.37,2013-03-25 16:11:00,
2013-03-25 12:16:00,35.4,25.9,29.76,NNE,19,9.0,15.0,68,0.00,OVC,OVC,0.00,WeatherDisplay:10.37,2013-03-25 16:16:00,
2013-03-25 12:21:00,35.8,26.6,29.76,NNE,20,12.0,18.0,69,0.00,OVC,OVC,0.00,WeatherDisplay:10.37,2013-03-25 16:21:00,
2013-03-25 12:26:00,35.6,25.7,29.76,NNE,15,10.0,22.0,67,0.00,OVC,OVC,0.00,WeatherDisplay:10.37,2013-03-25 16:26:00,
2013-03-25 12:36:00,35.6,25.0,29.76,NNE,21,13.0,22.0,65,0.00,OVC,OVC,0.00,WeatherDisplay:10.37,2013-03-25 16:36:00,
2013-03-25 12:41:00,35.6,25.4,29.77,NNE,20,13.0,20.0,66,0.00,OVC,OVC,0.00,WeatherDisplay:10.37,2013-03-25 16:41:00,
2013-03-25 12:46:00,35.5,25.3,29.77,NNE,25,9.0,17.0,66,0.00,OVC,OVC,0.00,WeatherDisplay:10.37,2013-03-25 16:46:00,
2013-03-25 12:51:00,35.6,25.7,29.77,NNE,33,12.0,18.0,67,0.00,OVC,OVC,0.00,WeatherDisplay:10.37,2013-03-25 16:51:00,
2013-03-25 12:56:00,35.5,25.6,29.77,NE,36,13.0,18.0,67,0.00,OVC,OVC,0.00,WeatherDisplay:10.37,2013-03-25 16:56:00,
2013-03-25 13:01:00,35.8,25.9,29.77,NNE,28,9.0,16.0,67,0.00,OVC,OVC,0.00,WeatherDisplay:10.37,2013-03-25 17:01:00,
2013-03-25 13:06:00,35.8,26.6,29.77,NNE,12,12.0,15.0,69,0.00,OVC,OVC,0.00,WeatherDisplay:10.37,2013-03-25 17:06:00,
2013-03-25 13:11:00,35.9,26.4,29.77,North,7,10.0,14.0,68,0.00,OVC,OVC,0.00,WeatherDisplay:10.37,2013-03-25 17:11:00,
2013-03-25 13:16:00,35.9,26.0,29.77,North,3,13.0,15.0,67,0.00,OVC,OVC,0.00,WeatherDisplay:10.37,2013-03-25 17:16:00,
2013-03-25 13:21:00,35.9,26.0,29.77,North,3,10.0,14.0,67,0.00,OVC,OVC,0.00,WeatherDisplay:10.37,2013-03-25 17:21:00,
2013-03-25 13:26:00,36.2,25.9,29.77,North,9,12.0,16.0,66,0.00,OVC,OVC,0.00,WeatherDisplay:10.37,2013-03-25 17:26:00,
2013-03-25 13:31:00,36.3,26.4,29.77,North,10,16.0,22.0,67,0.00,OVC,OVC,0.00,WeatherDisplay:10.37,2013-03-25 17:31:00,
2013-03-25 13:36:00,35.9,26.4,29.78,North,6,10.0,17.0,68,0.00,OVC,OVC,0.00,WeatherDisplay:10.37,2013-03-25 17:36:00,
2013-03-25 13:41:00,35.9,26.3,29.78,North,355,13.0,16.0,68,0.00,OVC,OVC,0.00,WeatherDisplay:10.37,2013-03-25 17:41:00,
2013-03-25 13:46:00,35.9,26.8,29.78,NNW,348,8.0,15.0,69,0.00,OVC,OVC,0.00,WeatherDisplay:10.37,2013-03-25 17:46:00,
2013-03-25 13:51:00,36.0,26.1,29.78,North,6,13.0,17.0,67,0.00,OVC,OVC,0.00,WeatherDisplay:10.37,2013-03-25 17:51:00,
2013-03-25 13:56:00,36.0,26.5,29.78,North,10,15.0,18.0,68,0.00,OVC,OVC,0.00,WeatherDisplay:10.37,2013-03-25 17:56:00,
2013-03-25 14:01:00,36.0,26.1,29.78,North,356,10.0,16.0,67,0.00,OVC,OVC,0.00,WeatherDisplay:10.37,2013-03-25 18:01:00,
2013-03-25 14:06:00,36.1,26.2,29.78,North,0,14.0,18.0,67,0.00,OVC,OVC,0.00,WeatherDisplay:10.37,2013-03-25 18:06:00,
2013-03-25 14:11:00,35.9,26.4,29.78,North,10,14.0,20.0,68,0.00,OVC,OVC,0.00,WeatherDisplay:10.37,2013-03-25 18:11:00,
2013-03-25 14:16:00,35.5,26.3,29.78,North,10,10.0,16.0,69,0.00,OVC,OVC,0.00,WeatherDisplay:10.37,2013-03-25 18:16:00,
2013-03-25 14:21:00,35.9,26.0,29.78,NNE,13,10.0,14.0,67,0.00,OVC,OVC,0.00,WeatherDisplay:10.37,2013-03-25 18:21:00,
2013-03-25 14:26:00,36.4,26.8,29.78,NNE,18,9.0,13.0,68,0.00,OVC,OVC,0.00,WeatherDisplay:10.37,2013-03-25 18:26:00,
2013-03-25 14:31:00,36.3,26.4,29.79,North,10,10.0,17.0,67,0.00,OVC,OVC,0.00,WeatherDisplay:10.37,2013-03-25 18:31:00,
2013-03-25 14:36:00,35.9,26.0,29.79,NNE,12,14.0,18.0,67,0.00,OVC,OVC,0.00,WeatherDisplay:10.37,2013-03-25 18:36:00,
2013-03-25 14:41:00,36.3,26.0,29.79,NNE,18,10.0,16.0,66,0.00,OVC,OVC,0.00,WeatherDisplay:10.37,2013-03-25 18:41:00,
2013-03-25 14:46:00,36.5,26.2,29.79,NNE,17,15.0,20.0,66,0.00,OVC,OVC,0.00,WeatherDisplay:10.37,2013-03-25 18:46:00,
2013-03-25 14:51:00,36.8,25.8,29.79,North,8,14.0,20.0,64,0.00,OVC,OVC,0.00,WeatherDisplay:10.37,2013-03-25 18:51:00,
2013-03-25 14:56:00,37.3,25.8,29.79,North,4,12.0,20.0,63,0.00,OVC,OVC,0.00,WeatherDisplay:10.37,2013-03-25 18:56:00,
2013-03-25 15:01:00,37.1,25.3,29.79,North,6,10.0,20.0,62,0.00,OVC,OVC,0.00,WeatherDisplay:10.37,2013-03-25 19:01:00,
2013-03-25 15:06:00,37.2,25.4,29.79,North,11,14.0,20.0,62,0.00,OVC,OVC,0.00,WeatherDisplay:10.37,2013-03-25 19:06:00,
2013-03-25 15:11:00,37.1,25.3,29.79,North,9,14.0,20.0,62,0.00,OVC,OVC,0.00,WeatherDisplay:10.37,2013-03-25 19:11:00,
2013-03-25 15:16:00,36.9,25.1,29.79,North,358,13.0,21.0,62,0.00,OVC,OVC,0.00,WeatherDisplay:10.37,2013-03-25 19:16:00,
2013-03-25 15:21:00,36.9,25.5,29.79,North,0,13.0,17.0,63,0.00,OVC,OVC,0.00,WeatherDisplay:10.37,2013-03-25 19:21:00,
2013-03-25 15:26:00,37.0,25.2,29.79,North,9,15.0,21.0,62,0.00,OVC,OVC,0.00,WeatherDisplay:10.37,2013-03-25 19:26:00,
2013-03-25 15:31:00,37.1,26.0,29.80,North,7,9.0,14.0,64,0.00,OVC,OVC,0.00,WeatherDisplay:10.37,2013-03-25 19:31:00,
2013-03-25 15:36:00,37.2,25.8,29.80,North,5,15.0,20.0,63,0.00,OVC,OVC,0.00,WeatherDisplay:10.37,2013-03-25 19:36:00,
2013-03-25 15:41:00,37.2,25.8,29.80,North,10,14.0,17.0,63,0.00,OVC,OVC,0.00,WeatherDisplay:10.37,2013-03-25 19:41:00,
2013-03-25 15:46:00,37.4,25.6,29.80,NNE,17,14.0,17.0,62,0.00,OVC,OVC,0.00,WeatherDisplay:10.37,2013-03-25 19:46:00,
2013-03-25 15:51:00,37.9,25.2,29.80,NNE,20,16.0,21.0,60,0.00,OVC,OVC,0.00,WeatherDisplay:10.37,2013-03-25 19:51:00,
2013-03-25 15:56:00,37.7,24.7,29.80,NNE,20,15.0,20.0,59,0.00,OVC,OVC,0.00,WeatherDisplay:10.37,2013-03-25 19:56:00,
2013-03-25 16:01:00,37.7,25.5,29.80,NNE,13,12.0,15.0,61,0.00,-SN,OVC,0.00,WeatherDisplay:10.37,2013-03-25 20:01:00,
2013-03-25 16:06:00,37.9,25.2,29.80,North,11,9.0,16.0,60,0.00,-SN,OVC,0.00,WeatherDisplay:10.37,2013-03-25 20:06:00,
2013-03-25 16:11:00,37.6,25.0,29.80,North,10,12.0,15.0,60,0.00,-SN,OVC,0.00,WeatherDisplay:10.37,2013-03-25 20:11:00,
2013-03-25 16:16:00,37.5,24.9,29.80,North,5,10.0,15.0,60,0.00,-SN,OVC,0.00,WeatherDisplay:10.37,2013-03-25 20:16:00,
2013-03-25 16:21:00,37.4,25.2,29.81,North,3,12.0,16.0,61,0.00,-SN,OVC,0.00,WeatherDisplay:10.37,2013-03-25 20:21:00,
2013-03-25 16:26:00,37.4,24.8,29.81,North,359,12.0,16.0,60,0.00,-SN,OVC,0.00,WeatherDisplay:10.37,2013-03-25 20:26:00,
2013-03-25 16:31:00,37.7,24.6,29.81,North,2,12.0,17.0,59,0.00,-SN,OVC,0.00,WeatherDisplay:10.37,2013-03-25 20:31:00,
2013-03-25 16:36:00,37.9,25.6,29.81,North,8,12.0,16.0,61,0.00,-SN,OVC,0.00,WeatherDisplay:10.37,2013-03-25 20:36:00,
2013-03-25 16:41:00,37.7,24.7,29.81,NNE,14,12.0,17.0,59,0.00,-SN,OVC,0.00,WeatherDisplay:10.37,2013-03-25 20:41:00,
2013-03-25 16:46:00,37.7,25.0,29.81,North,6,9.0,14.0,60,0.00,-SN,OVC,0.00,WeatherDisplay:10.37,2013-03-25 20:46:00,
2013-03-25 16:51:00,37.8,26.0,29.81,North,3,9.0,14.0,62,0.00,-SN,OVC,0.00,WeatherDisplay:10.37,2013-03-25 20:51:00,
2013-03-25 16:56:00,37.9,24.8,29.82,North,6,10.0,16.0,59,0.00,-SN,OVC,0.00,WeatherDisplay:10.37,2013-03-25 20:56:00,
2013-03-25 17:01:00,38.3,25.2,29.82,North,2,12.0,17.0,59,0.00,-SN,OVC,0.00,WeatherDisplay:10.37,2013-03-25 21:01:00,
2013-03-25 17:06:00,38.3,24.8,29.82,North,8,13.0,16.0,58,0.00,-SN,OVC,0.00,WeatherDisplay:10.37,2013-03-25 21:06:00,
2013-03-25 17:11:00,38.2,24.7,29.82,North,11,12.0,15.0,58,0.00,-SN,OVC,0.00,WeatherDisplay:10.37,2013-03-25 21:11:00,
2013-03-25 17:16:00,38.0,24.5,29.82,North,358,8.0,14.0,58,0.00,-SN,OVC,0.00,WeatherDisplay:10.37,2013-03-25 21:16:00,
2013-03-25 17:21:00,37.9,24.0,29.82,North,0,10.0,15.0,57,0.00,-SN,OVC,0.00,WeatherDisplay:10.37,2013-03-25 21:21:00,
2013-03-25 17:26:00,37.9,24.8,29.83,North,7,12.0,14.0,59,0.00,-SN,OVC,0.00,WeatherDisplay:10.37,2013-03-25 21:26:00,
2013-03-25 17:31:00,37.8,25.1,29.83,North,5,8.0,12.0,60,0.00,-SN,OVC,0.00,WeatherDisplay:10.37,2013-03-25 21:31:00,
2013-03-25 17:36:00,37.9,25.6,29.83,North,7,8.0,15.0,61,0.00,-SN,OVC,0.00,WeatherDisplay:10.37,2013-03-25 21:36:00,
2013-03-25 17:41:00,38.1,25.0,29.83,NNE,19,9.0,13.0,59,0.00,-SN,OVC,0.00,WeatherDisplay:10.37,2013-03-25 21:41:00,
2013-03-25 17:46:00,38.2,25.1,29.83,NNE,30,8.0,16.0,59,0.00,-SN,OVC,0.00,WeatherDisplay:10.37,2013-03-25 21:46:00,
2013-03-25 17:51:00,38.3,24.8,29.83,NNE,20,10.0,14.0,58,0.00,-SN,OVC,0.00,WeatherDisplay:10.37,2013-03-25 21:51:00,
2013-03-25 17:56:00,38.2,24.3,29.83,North,7,12.0,15.0,57,0.00,-SN,OVC,0.00,WeatherDisplay:10.37,2013-03-25 21:56:00,
2013-03-25 18:01:00,38.3,25.2,29.83,North,11,8.0,12.0,59,0.00,OVC,OVC,0.00,WeatherDisplay:10.37,2013-03-25 22:01:00,
2013-03-25 18:06:00,38.4,24.9,29.84,NNE,19,9.0,13.0,58,0.00,OVC,OVC,0.00,WeatherDisplay:10.37,2013-03-25 22:06:00,
2013-03-25 18:11:00,38.4,25.3,29.84,NNE,18,7.0,12.0,59,0.00,OVC,OVC,0.00,WeatherDisplay:10.37,2013-03-25 22:11:00,
2013-03-25 18:16:00,38.3,24.8,29.84,NNE,14,8.0,14.0,58,0.00,OVC,OVC,0.00,WeatherDisplay:10.37,2013-03-25 22:16:00,
2013-03-25 18:21:00,38.2,24.7,29.84,North,7,9.0,12.0,58,0.00,OVC,OVC,0.00,WeatherDisplay:10.37,2013-03-25 22:21:00,
2013-03-25 18:26:00,38.1,25.0,29.84,North,357,9.0,12.0,59,0.00,OVC,OVC,0.00,WeatherDisplay:10.37,2013-03-25 22:26:00,
2013-03-25 18:31:00,38.1,25.0,29.85,North,8,8.0,12.0,59,0.00,OVC,OVC,0.00,WeatherDisplay:10.37,2013-03-25 22:31:00,
2013-03-25 18:36:00,38.0,24.5,29.85,NNE,16,8.0,12.0,58,0.00,OVC,OVC,0.00,WeatherDisplay:10.37,2013-03-25 22:36:00,
2013-03-25 18:41:00,38.0,24.9,29.85,North,10,6.0,9.0,59,0.00,OVC,OVC,0.00,WeatherDisplay:10.37,2013-03-25 22:41:00,
2013-03-25 18:46:00,37.9,25.3,29.85,North,1,6.0,10.0,60,0.00,OVC,OVC,0.00,WeatherDisplay:10.37,2013-03-25 22:46:00,
2013-03-25 18:51:00,37.9,24.8,29.86,North,356,8.0,12.0,59,0.00,OVC,OVC,0.00,WeatherDisplay:10.37,2013-03-25 22:51:00,
2013-03-25 18:56:00,37.9,25.2,29.86,NNW,340,8.0,12.0,60,0.00,OVC,OVC,0.00,WeatherDisplay:10.37,2013-03-25 22:56:00,
2013-03-25 19:01:00,37.7,25.1,29.86,NNW,335,9.0,15.0,60,0.00,BKN,OVC,0.00,WeatherDisplay:10.37,2013-03-25 23:01:00,
2013-03-25 19:06:00,37.5,24.8,29.87,NNW,344,10.0,15.0,60,0.00,BKN,OVC,0.00,WeatherDisplay:10.37,2013-03-25 23:06:00,
2013-03-25 19:11:00,37.3,25.1,29.87,NNW,342,7.0,10.0,61,0.00,BKN,OVC,0.00,WeatherDisplay:10.37,2013-03-25 23:11:00,
2013-03-25 19:16:00,37.2,25.4,29.87,NNW,342,7.0,10.0,62,0.00,BKN,OVC,0.00,WeatherDisplay:10.37,2013-03-25 23:16:00,
2013-03-25 19:21:00,37.1,25.3,29.88,NNW,348,8.0,12.0,62,0.00,BKN,OVC,0.00,WeatherDisplay:10.37,2013-03-25 23:21:00,
2013-03-25 19:26:00,36.9,25.5,29.88,North,356,10.0,12.0,63,0.00,BKN,OVC,0.00,WeatherDisplay:10.37,2013-03-25 23:26:00,
2013-03-25 19:31:00,36.9,25.8,29.88,North,354,8.0,12.0,64,0.00,BKN,OVC,0.00,WeatherDisplay:10.37,2013-03-25 23:31:00,
2013-03-25 19:36:00,36.8,25.4,29.88,NNW,347,7.0,12.0,63,0.00,BKN,OVC,0.00,WeatherDisplay:10.37,2013-03-25 23:36:00,
2013-03-25 19:41:00,36.8,25.4,29.89,NNW,344,8.0,12.0,63,0.00,BKN,OVC,0.00,WeatherDisplay:10.37,2013-03-25 23:41:00,
2013-03-25 19:46:00,36.7,25.7,29.89,NNW,346,7.0,10.0,64,0.00,BKN,OVC,0.00,WeatherDisplay:10.37,2013-03-25 23:46:00,
2013-03-25 19:51:00,36.7,25.7,29.89,NNW,344,7.0,12.0,64,0.00,BKN,OVC,0.00,WeatherDisplay:10.37,2013-03-25 23:51:00,
2013-03-25 19:56:00,36.5,25.8,29.89,NNW,342,5.0,8.0,65,0.00,BKN,OVC,0.00,WeatherDisplay:10.37,2013-03-25 23:56:00,
2013-03-25 20:01:00,36.5,25.9,29.90,NNW,345,7.0,12.0,65,0.00,OVC,OVC,0.00,WeatherDisplay:10.37,2013-03-26 00:01:00,
2013-03-25 20:06:00,36.6,25.9,29.90,NNW,343,7.0,12.0,65,0.00,OVC,OVC,0.00,WeatherDisplay:10.37,2013-03-26 00:06:00,
2013-03-25 20:11:00,36.5,25.8,29.90,NNW,346,5.0,10.0,65,0.00,OVC,OVC,0.00,WeatherDisplay:10.37,2013-03-26 00:11:00,
2013-03-25 20:16:00,36.4,25.7,29.90,North,350,5.0,7.0,65,0.00,OVC,OVC,0.00,WeatherDisplay:10.37,2013-03-26 00:16:00,
2013-03-25 20:21:00,36.4,25.7,29.90,North,352,7.0,9.0,65,0.00,OVC,OVC,0.00,WeatherDisplay:10.37,2013-03-26 00:21:00,
2013-03-25 20:26:00,36.4,25.7,29.91,NNW,348,5.0,10.0,65,0.00,OVC,OVC,0.00,WeatherDisplay:10.37,2013-03-26 00:26:00,
2013-03-25 20:31:00,36.4,25.7,29.91,NNW,348,6.0,9.0,65,0.00,OVC,OVC,0.00,WeatherDisplay:10.37,2013-03-26 00:31:00,
2013-03-25 20:36:00,36.3,26.0,29.91,NNW,342,5.0,7.0,66,0.00,OVC,OVC,0.00,WeatherDisplay:10.37,2013-03-26 00:36:00,
2013-03-25 20:41:00,36.3,25.7,29.91,NNW,331,5.0,7.0,65,0.00,OVC,OVC,0.00,WeatherDisplay:10.37,2013-03-26 00:41:00,
2013-03-25 20:46:00,36.2,25.9,29.92,NNW,327,8.0,12.0,66,0.00,OVC,OVC,0.00,WeatherDisplay:10.37,2013-03-26 00:46:00,
2013-03-25 20:51:00,36.3,25.7,29.92,NNW,328,6.0,9.0,65,0.00,OVC,OVC,0.00,WeatherDisplay:10.37,2013-03-26 00:51:00,
2013-03-25 20:56:00,36.1,26.2,29.92,NW,324,6.0,13.0,67,0.00,OVC,OVC,0.00,WeatherDisplay:10.37,2013-03-26 00:56:00,
2013-03-25 21:01:00,35.9,26.4,29.92,NW,323,8.0,12.0,68,0.00,OVC,OVC,0.00,WeatherDisplay:10.37,2013-03-26 01:01:00,
2013-03-25 21:06:00,35.7,26.5,29.92,NW,321,5.0,10.0,69,0.00,OVC,OVC,0.00,WeatherDisplay:10.37,2013-03-26 01:06:00,
2013-03-25 21:11:00,35.5,26.7,29.93,NW,316,7.0,10.0,70,0.00,OVC,OVC,0.00,WeatherDisplay:10.37,2013-03-26 01:11:00,
2013-03-25 21:16:00,35.4,26.6,29.93,NW,319,7.0,9.0,70,0.00,OVC,OVC,0.00,WeatherDisplay:10.37,2013-03-26 01:16:00,
2013-03-25 21:21:00,35.3,26.8,29.93,NW,326,8.0,13.0,71,0.00,OVC,OVC,0.00,WeatherDisplay:10.37,2013-03-26 01:21:00,
2013-03-25 21:26:00,35.2,26.7,29.93,NNW,327,6.0,8.0,71,0.00,OVC,OVC,0.00,WeatherDisplay:10.37,2013-03-26 01:26:00,
2013-03-25 21:31:00,35.1,27.0,29.94,NNW,329,7.0,12.0,72,0.00,OVC,OVC,0.00,WeatherDisplay:10.37,2013-03-26 01:31:00,
2013-03-25 21:36:00,35.0,26.9,29.94,NW,325,6.0,10.0,72,0.00,OVC,OVC,0.00,WeatherDisplay:10.37,2013-03-26 01:36:00,
2013-03-25 21:41:00,34.9,27.1,29.94,NW,323,5.0,9.0,73,0.00,OVC,OVC,0.00,WeatherDisplay:10.37,2013-03-26 01:41:00,
2013-03-25 21:46:00,34.8,27.0,29.94,NW,320,7.0,12.0,73,0.00,OVC,OVC,0.00,WeatherDisplay:10.37,2013-03-26 01:46:00,
2013-03-25 21:51:00,34.7,26.9,29.94,NW,322,6.0,10.0,73,0.00,OVC,OVC,0.00,WeatherDisplay:10.37,2013-03-26 01:51:00,
2013-03-25 21:56:00,34.7,26.9,29.94,NW,318,7.0,10.0,73,0.00,OVC,OVC,0.00,WeatherDisplay:10.37,2013-03-26 01:56:00,
2013-03-25 22:01:00,34.7,26.9,29.95,NW,321,8.0,12.0,73,0.00,OVC,OVC,0.00,WeatherDisplay:10.37,2013-03-26 02:01:00,
2013-03-25 22:06:00,34.6,26.8,29.95,NW,323,7.0,12.0,73,0.00,OVC,OVC,0.00,WeatherDisplay:10.37,2013-03-26 02:06:00,
2013-03-25 22:11:00,34.6,26.8,29.95,NW,321,6.0,9.0,73,0.00,OVC,OVC,0.00,WeatherDisplay:10.37,2013-03-26 02:11:00,
2013-03-25 22:16:00,34.5,27.1,29.95,NW,321,5.0,7.0,74,0.00,OVC,OVC,0.00,WeatherDisplay:10.37,2013-03-26 02:16:00,
2013-03-25 22:21:00,34.5,27.1,29.96,NW,323,6.0,10.0,74,0.00,OVC,OVC,0.00,WeatherDisplay:10.37,2013-03-26 02:21:00,
2013-03-25 22:26:00,34.4,27.0,29.96,NW,326,6.0,8.0,74,0.00,OVC,OVC,0.00,WeatherDisplay:10.37,2013-03-26 02:26:00,
2013-03-25 22:31:00,34.5,26.7,29.96,NNW,330,6.0,12.0,73,0.00,OVC,OVC,0.00,WeatherDisplay:10.37,2013-03-26 02:31:00,
2013-03-25 22:36:00,34.5,26.7,29.96,NNW,332,6.0,10.0,73,0.00,OVC,OVC,0.00,WeatherDisplay:10.37,2013-03-26 02:36:00,
2013-03-25 22:41:00,34.4,26.7,29.96,NNW,333,5.0,7.0,73,0.00,OVC,OVC,0.00,WeatherDisplay:10.37,2013-03-26 02:41:00,
2013-03-25 22:46:00,34.4,26.7,29.96,NNW,335,6.0,8.0,73,0.00,OVC,OVC,0.00,WeatherDisplay:10.37,2013-03-26 02:46:00,
2013-03-25 22:51:00,34.4,26.6,29.96,NNW,338,5.0,7.0,73,0.00,OVC,OVC,0.00,WeatherDisplay:10.37,2013-03-26 02:51:00,
2013-03-25 22:56:00,34.4,26.6,29.96,NNW,337,6.0,8.0,73,0.00,OVC,OVC,0.00,WeatherDisplay:10.37,2013-03-26 02:56:00,
2013-03-25 23:01:00,34.4,26.6,29.97,NNW,334,5.0,7.0,73,0.00,OVC,OVC,0.00,WeatherDisplay:10.37,2013-03-26 03:01:00,
2013-03-25 23:06:00,34.4,26.6,29.96,NNW,345,5.0,7.0,73,0.00,OVC,OVC,0.00,WeatherDisplay:10.37,2013-03-26 03:06:00,
2013-03-25 23:11:00,34.4,26.6,29.97,NNW,347,5.0,8.0,73,0.00,OVC,OVC,0.00,WeatherDisplay:10.37,2013-03-26 03:11:00,
2013-03-25 23:16:00,34.4,26.6,29.97,NNW,341,6.0,8.0,73,0.00,OVC,OVC,0.00,WeatherDisplay:10.37,2013-03-26 03:16:00,
2013-03-25 23:26:00,34.4,26.6,29.97,NW,325,6.0,8.0,73,0.00,OVC,OVC,0.00,WeatherDisplay:10.37,2013-03-26 03:26:00,
2013-03-25 23:31:00,34.4,26.3,29.97,NNW,330,3.0,7.0,72,0.00,OVC,OVC,0.00,WeatherDisplay:10.37,2013-03-26 03:31:00,
2013-03-25 23:36:00,34.3,26.5,29.97,NNW,338,3.0,7.0,73,0.00,OVC,OVC,0.00,WeatherDisplay:10.37,2013-03-26 03:36:00,
2013-03-25 23:41:00,34.3,26.2,29.97,NNW,339,5.0,7.0,72,0.00,OVC,OVC,0.00,WeatherDisplay:10.37,2013-03-26 03:41:00,
2013-03-25 23:46:00,34.3,26.2,29.97,NNW,335,5.0,7.0,72,0.00,OVC,OVC,0.00,WeatherDisplay:10.37,2013-03-26 03:46:00,
2013-03-25 23:51:00,34.2,26.1,29.97,NNW,340,5.0,7.0,72,0.00,OVC,OVC,0.00,WeatherDisplay:10.37,2013-03-26 03:51:00,
2013-03-25 23:56:00,34.2,26.4,29.97,North,354,2.0,4.0,73,0.00,OVC,OVC,0.00,WeatherDisplay:10.37,2013-03-26 03:56:00,